Location: Spaichingen
(48.0400°N, 8.4300°E)
Time: 12:56:26
(UTC+01:00)

Tiangong 2 - Visible Passes

Search period start: 20 March 2019 00:00
Search period end: 30 March 2019 00:00
Orbit: 379 x 390 km, 42.8° (Epoch: 19 March)

Date Brightness Start Highest point End Pass type
(mag) Time Alt. Az. Time Alt. Az. Time Alt. Az.
20 Mar 2.9 04:31:37 22° SSE 04:31:37 22° SSE 04:33:18 10° SE visible
21 Mar 2.8 05:07:14 19° SSW 05:07:25 19° SSW 05:09:46 10° SSE visible
22 Mar 4.0 04:10:42 10° SE 04:10:42 10° SE 04:10:46 10° SE visible
23 Mar 3.7 04:46:32 11° S 04:46:32 11° S 04:46:41 10° S visible
